Le nostre stazioni meteo in Italia

Pubblicità
Il mio iltempo24.it
Lecce, Italia (16333): Temperatura & dewpoint: 13.08.2018 10:00:00 - 19.08.2018 10:00:00 (CEST)Lecce, Italia (16333): velocità del vento: 13.08.2018 10:00:00 - 19.08.2018 10:00:00 (CEST)Lecce, Italia (16333): direzione del vento: 13.08.2018 10:00:00 - 19.08.2018 10:00:00 (CEST)Lecce, Italia (16333): reduced air pressure: 13.08.2018 10:00:00 - 19.08.2018 10:00:00 (CEST)Lecce, Italia (16333): precipitazioni: 13.08.2018 10:00:00 - 19.08.2018 10:00:00 (CEST)
Data & Tempo tt [°C] td [°C] ff [km/h] ff [kn] dd ppp [hPa] rr [mm]
19.08.2018 10:00:00 - - - - - - -
19.08.2018 09:00:00 25,9 24,6 28 15 N 1013,6 -
19.08.2018 08:00:00 24,2 23,3 18 10 NNO 1013,8 0,0
19.08.2018 07:00:00 23,7 23,0 26 14 NNO 1013,3 -
19.08.2018 06:00:00 22,8 22,2 8 4 ONO 1013,4 -
19.08.2018 05:00:00 22,9 22,2 8 4 NO 1013,3 -
19.08.2018 04:00:00 23,1 22,4 11 6 NO 1013,4 -
19.08.2018 03:00:00 22,9 22,0 4 2 ONO 1013,6 -
19.08.2018 02:00:00 23,2 22,3 9 5 NNO 1013,7 0,0
19.08.2018 01:00:00 23,8 22,7 5 3 NO 1014,1 -
19.08.2018 00:00:00 23,6 22,3 9 5 NNO 1014,4 -
18.08.2018 23:00:00 24,1 22,7 11 6 NNO 1014,3 -
18.08.2018 22:00:00 25,5 23,9 13 7 NNO 1014,3 -
18.08.2018 21:00:00 26,2 23,4 15 8 NNO 1014,3 -
18.08.2018 20:00:00 27,3 22,6 21 11 NNO 1013,8 0,0
18.08.2018 19:00:00 28,9 22,3 24 13 NNO 1013,2 -
18.08.2018 18:00:00 29,7 22,4 28 15 N 1012,7 -
18.08.2018 17:00:00 30,5 22,9 26 14 N 1013,0 -
18.08.2018 16:00:00 30,8 22,9 29 16 NNO 1012,9 -
18.08.2018 15:00:00 31,1 23,2 31 17 NNO 1013,1 -
18.08.2018 14:00:00 31,1 23,7 34 18 N 1013,5 0,0
18.08.2018 13:00:00 31,1 22,7 26 14 N 1013,7 -
18.08.2018 12:00:00 30,5 23,6 24 13 NNO 1014,2 -
18.08.2018 11:00:00 29,6 23,3 24 13 NNO 1014,2 -
18.08.2018 10:00:00 28,9 24,0 26 14 NNE 1014,0 -
18.08.2018 09:00:00 26,9 25,3 16 9 N 1013,7 -
18.08.2018 08:00:00 23,8 23,4 11 6 N 1013,6 -
18.08.2018 07:00:00 20,7 20,2 9 5 N 1013,7 -
18.08.2018 06:00:00 20,3 19,6 5 3 ONO 1013,3 -
18.08.2018 05:00:00 21,0 20,3 5 3 NNO 1013,3 -
18.08.2018 04:00:00 21,2 20,5 8 4 NO 1013,2 -
18.08.2018 03:00:00 21,2 20,5 11 6 NNO 1013,5 -
18.08.2018 02:00:00 21,2 20,3 8 4 O 1013,8 0,0
18.08.2018 01:00:00 22,1 21,2 9 5 ONO 1013,8 -
18.08.2018 00:00:00 22,2 21,0 5 3 ONO 1013,8 -
17.08.2018 23:00:00 22,8 21,4 4 2 ONO 1013,7 -
17.08.2018 22:00:00 23,6 22,0 5 3 ONO 1013,6 -
17.08.2018 21:00:00 24,7 22,3 9 5 NO 1013,5 -
17.08.2018 20:00:00 26,4 23,4 21 11 NNO 1013,2 0,0
17.08.2018 19:00:00 27,3 23,1 21 11 NNO 1012,7 -
17.08.2018 18:00:00 28,1 23,2 15 8 N 1012,1 -
17.08.2018 17:00:00 27,6 22,7 28 15 NNO 1012,4 -
17.08.2018 16:00:00 25,6 23,4 16 9 O 1012,6 -
17.08.2018 15:00:00 24,9 20,5 29 16 OSO 1013,8 -
17.08.2018 14:00:00 28,0 23,1 31 17 N 1012,9 0,0
17.08.2018 13:00:00 29,3 22,5 26 14 N 1012,7 -
17.08.2018 12:00:00 30,0 22,7 24 13 N 1012,9 -
17.08.2018 11:00:00 29,2 23,1 24 13 NNE 1013,0 -
17.08.2018 10:00:00 27,9 24,5 34 18 N 1012,9 -
17.08.2018 09:00:00 26,2 24,9 28 15 NNO 1012,6 -
17.08.2018 08:00:00 22,7 22,1 9 5 ONO 1012,8 0,0
17.08.2018 07:00:00 20,2 19,5 0 0 N 1012,7 -
17.08.2018 06:00:00 19,8 19,1 4 2 NO 1012,3 -
17.08.2018 05:00:00 19,6 18,9 2 1 O 1012,1 -
17.08.2018 04:00:00 19,3 18,4 8 4 ONO 1012,2 -
17.08.2018 03:00:00 19,9 19,0 8 4 N 1012,4 -
17.08.2018 02:00:00 20,2 19,3 8 4 O 1012,7 0,0
17.08.2018 01:00:00 20,5 19,4 8 4 ONO 1012,7 -
17.08.2018 00:00:00 21,1 20,0 0 0 N 1012,8 -
16.08.2018 23:00:00 21,8 20,6 4 2 NNO 1012,7 -
16.08.2018 22:00:00 22,0 20,4 5 3 ONO 1012,5 -
16.08.2018 21:00:00 23,1 20,9 5 3 ENE 1012,5 -
16.08.2018 20:00:00 24,5 20,8 9 5 NNE 1012,3 -
16.08.2018 19:00:00 25,2 21,4 9 5 N 1011,9 -
16.08.2018 18:00:00 24,8 21,5 9 5 NNO 1012,0 -
16.08.2018 17:00:00 24,7 21,8 16 9 ONO 1012,1 -
16.08.2018 16:00:00 24,8 22,2 18 10 NO 1011,9 -
16.08.2018 15:00:00 23,5 21,5 13 7 ONO 1012,3 -
16.08.2018 14:00:00 21,8 20,7 21 11 SSO 1012,2 -
16.08.2018 13:00:00 20,4 19,5 28 15 S 1013,0 -
16.08.2018 12:00:00 23,4 18,0 41 22 SSE 1012,1 -
16.08.2018 11:00:00 28,1 23,4 24 13 NNO 1011,0 -
16.08.2018 10:00:00 26,9 23,3 28 15 N 1010,6 -
16.08.2018 09:00:00 24,9 23,6 16 9 NNO 1010,5 -
16.08.2018 08:00:00 23,0 22,4 21 11 NNO 1010,5 0,0
16.08.2018 07:00:00 21,6 21,1 11 6 NO 1010,5 -
16.08.2018 06:00:00 20,8 19,9 11 6 NNO 1010,4 -
16.08.2018 05:00:00 21,0 20,1 11 6 NNO 1010,4 -
16.08.2018 04:00:00 21,5 20,6 13 7 NO 1010,5 -
16.08.2018 03:00:00 20,8 19,6 9 5 NNO 1011,2 -
16.08.2018 02:00:00 21,2 20,0 4 2 NNE 1011,3 0,0
16.08.2018 01:00:00 21,3 19,7 4 2 ONO 1011,6 -
16.08.2018 00:00:00 22,3 20,7 2 1 NO 1011,9 -
15.08.2018 23:00:00 23,0 21,4 2 1 NE 1011,8 -
15.08.2018 22:00:00 23,2 21,6 11 6 NNO 1011,8 -
15.08.2018 21:00:00 24,1 21,9 11 6 N 1011,3 -
15.08.2018 20:00:00 26,0 21,4 15 8 NE 1011,1 0,0
15.08.2018 19:00:00 28,2 20,4 21 11 NNO 1010,2 -
15.08.2018 18:00:00 30,5 19,5 16 9 O 1009,9 -
15.08.2018 17:00:00 30,7 20,6 11 6 SSO 1010,0 -
15.08.2018 16:00:00 29,1 21,0 26 14 OSO 1010,0 -
15.08.2018 15:00:00 30,7 23,1 28 15 SO 1009,5 -
15.08.2018 14:00:00 31,9 22,0 11 6 SO 1009,9 0,0
15.08.2018 13:00:00 30,2 21,5 8 4 O 1010,1 -
15.08.2018 12:00:00 29,7 23,4 21 11 SO 1010,6 -
15.08.2018 11:00:00 29,5 23,4 24 13 SO 1010,7 -
15.08.2018 10:00:00 28,6 23,2 22 12 O 1010,7 -
15.08.2018 09:00:00 27,3 25,5 15 8 NNO 1010,8 -
15.08.2018 08:00:00 24,9 23,8 15 8 NNO 1010,2 0,0
15.08.2018 07:00:00 22,5 21,4 4 2 N 1009,5 -
15.08.2018 06:00:00 22,6 21,5 9 5 NNO 1009,5 -
15.08.2018 05:00:00 22,1 21,0 11 6 NNO 1009,9 -
15.08.2018 04:00:00 22,8 21,7 5 3 N 1009,9 -
15.08.2018 03:00:00 22,4 21,0 9 5 NO 1010,3 -
15.08.2018 02:00:00 23,1 21,7 2 1 SO 1010,4 0,0
15.08.2018 01:00:00 24,2 22,6 9 5 NNO 1010,6 -
15.08.2018 00:00:00 24,6 23,5 13 7 NO 1010,7 -
14.08.2018 23:00:00 26,0 24,7 5 3 SO 1010,6 -
14.08.2018 22:00:00 26,6 25,1 8 4 OSO 1010,6 -
14.08.2018 21:00:00 27,4 24,4 9 5 SSE 1010,4 -
14.08.2018 20:00:00 29,3 24,6 15 8 SSO 1010,2 -
14.08.2018 19:00:00 31,0 24,1 15 8 SSE 1009,7 -
14.08.2018 18:00:00 32,0 23,2 16 9 SSE 1009,3 -
14.08.2018 17:00:00 31,2 21,3 16 9 E 1009,9 -
14.08.2018 16:00:00 27,4 22,5 28 15 ESE 1010,4 -
14.08.2018 15:00:00 30,7 26,9 21 11 OSO 1010,2 -
14.08.2018 14:00:00 32,8 24,0 9 5 NO 1010,7 0,0
14.08.2018 13:00:00 32,0 24,6 15 8 SSE 1011,3 -
14.08.2018 12:00:00 31,0 24,8 15 8 S 1011,6 -
14.08.2018 11:00:00 29,3 24,4 9 5 SSE 1012,0 -
14.08.2018 10:00:00 28,2 25,6 4 2 SSO 1011,9 -
14.08.2018 09:00:00 26,9 25,8 13 7 SE 1011,9 -
14.08.2018 08:00:00 25,8 25,4 9 5 SE 1011,7 0,0
14.08.2018 07:00:00 23,5 22,9 5 3 ENE 1011,6 -
14.08.2018 06:00:00 22,1 21,4 2 1 NE 1011,3 -
14.08.2018 05:00:00 21,6 20,7 2 1 NNE 1011,1 -
14.08.2018 04:00:00 22,4 21,5 0 0 N 1011,0 -
14.08.2018 03:00:00 23,1 22,2 4 2 ENE 1011,0 -
14.08.2018 02:00:00 23,1 21,8 2 1 N 1011,6 0,0
14.08.2018 01:00:00 23,9 22,6 4 2 ENE 1011,8 -
14.08.2018 00:00:00 24,8 23,4 9 5 SSE 1011,9 -
13.08.2018 23:00:00 26,2 24,7 4 2 SSE 1012,0 -
13.08.2018 22:00:00 26,6 24,2 11 6 S 1011,9 -
13.08.2018 21:00:00 27,9 23,2 13 7 S 1011,8 -
13.08.2018 20:00:00 29,8 22,2 21 11 S 1011,3 0,0
13.08.2018 19:00:00 31,7 21,8 26 14 S 1011,1 -
13.08.2018 18:00:00 33,1 21,3 24 13 S 1011,3 -
13.08.2018 17:00:00 33,1 22,2 28 15 SSO 1011,7 -
13.08.2018 16:00:00 34,0 22,1 21 11 SO 1012,0 -
13.08.2018 15:00:00 35,2 21,1 16 9 SO 1012,6 -
13.08.2018 14:00:00 35,0 20,9 18 10 OSO 1013,0 0,0
13.08.2018 13:00:00 33,9 23,0 18 10 SO 1013,5 -
13.08.2018 12:00:00 33,1 22,5 13 7 OSO 1013,7 -
13.08.2018 11:00:00 32,4 22,8 11 6 S 1014,0 -
13.08.2018 10:00:00 30,8 24,7 11 6 SE 1013,9 -

tt = Temperatura
td = dewpoint
ff = velocità del vento
dd = direzione del vento
ppp = reduced air pressure
rr = precipitazioni

Stazioni seguenti

WeatherPro
AMSI
MeteoEarth